Location: Temecula
(33.4977°N, 117.1073°W)
Time: 07:56:11
(UTC-07:00)

ISS - Visible Passes

Search period start: 19 September 2018 00:00
Search period end: 29 September 2018 00:00
Orbit: 402 x 408 km, 51.6° (Epoch: 19 September)

Date Brightness Start Highest point End Pass type
(mag) Time Alt. Az. Time Alt. Az. Time Alt. Az.
19 Sep -2.8 05:07:17 33° S 05:07:17 33° S 05:09:23 10° SSE visible
19 Sep -2.8 20:03:55 10° SSW 20:06:16 30° SSE 20:06:16 30° SSE visible
20 Sep -2.0 19:12:58 10° SSE 19:15:04 16° SE 19:17:11 10° E visible
20 Sep -1.7 20:48:17 10° WSW 20:50:16 27° W 20:50:16 27° W visible
21 Sep -3.7 19:56:00 10° SW 19:59:16 75° NW 20:01:16 22° NE visible
22 Sep -3.5 19:04:07 10° SSW 19:07:17 46° SE 19:10:27 10° ENE visible
22 Sep -1.1 20:41:47 10° WNW 20:43:57 16° NNW 20:44:42 15° NNW visible
23 Sep -1.8 19:48:52 10° W 19:51:44 27° NW 19:54:37 10° NNE visible
25 Sep -0.9 19:42:35 10° WNW 19:44:19 13° NNW 19:46:03 10° N visible
